JH1LWU-13 Weather Reports


Display with metric or nautical units.
time (UTC)temp
F
wind
direction
speed
MPH
gust
MPH
rain 1hr
in
rain 24hr
in
rain mn
in
humidity
%
barometer
mb
20260509223823 66 114 0.0 0.0 0.00 0.00 0.00 31 1017.0
20260509220822 64 41 1.0 2.0 0.00 0.00 0.00 31 1017.0
20260509213821 63 55 0.0 0.0 0.00 0.00 0.00 33 1017.0
20260509210820 61 217 0.0 1.0 0.00 0.00 0.00 36 1015.0
20260509203819 58 215 0.0 1.0 0.00 0.00 0.00 39 1018.0
20260509200818 57 297 0.0 0.0 0.00 0.00 0.00 41 1017.0
20260509193817 56 288 0.0 0.0 0.00 0.00 0.00 41 1015.0
20260509190816 57 288 0.0 0.0 0.00 0.00 0.00 42 1015.0
20260509183815 57 288 0.0 0.0 0.00 0.00 0.00 39 1014.0
20260509180814 58 290 0.0 0.0 0.00 0.00 0.00 38 1015.0
20260509173813 59 287 0.0 0.0 0.00 0.00 0.00 37 1013.0
20260509170812 59 292 0.0 0.0 0.00 0.00 0.00 37 1014.0
20260509163811 59 290 0.0 0.0 0.00 0.00 0.00 37 1014.0
20260509160810 59 288 0.0 0.0 0.00 0.00 0.00 36 1014.0
20260509153809 60 287 0.0 0.0 0.00 0.00 0.00 35 1014.0
20260509150808 60 290 0.0 0.0 0.00 0.00 0.00 34 1012.0
20260509143807 61 290 0.0 0.0 0.00 0.00 0.00 33 1013.0
20260509140806 61 287 0.0 0.0 0.00 0.00 0.00 33 1013.0
20260509133805 60 287 0.0 0.0 0.00 0.00 0.00 35 1012.0
20260509130804 61 285 0.0 0.0 0.00 0.00 0.00 32 1014.0
20260509123803 62 287 0.0 0.0 0.00 0.00 0.00 31 1012.0
20260509120802 63 288 0.0 0.0 0.00 0.00 0.00 29 1011.0
20260509113801 64 287 0.0 0.0 0.00 0.00 0.00 27 1012.0
20260509110800 65 287 0.0 0.0 0.00 0.00 0.00 24 1012.0
20260509103759 66 292 0.0 0.0 0.00 0.00 0.00 24 1012.0
20260509100758 67 304 0.0 0.0 0.00 0.00 0.00 23 1010.0
20260509093757 67 30 1.0 3.0 0.00 0.00 0.00 22 1011.0
20260509090756 68 205 3.0 4.0 0.00 0.00 0.00 22 1010.0
20260509083755 69 211 0.0 4.0 0.00 0.00 0.00 21 1010.0
20260509080754 70 202 0.0 3.0 0.00 0.00 0.00 22 1008.0
20260509073753 71 103 1.0 4.0 0.00 0.00 0.00 22 1008.0
20260509070752 72 267 2.0 4.0 0.00 0.00 0.00 22 1007.0
20260509063751 73 97 2.0 3.0 0.00 0.00 0.00 22 1008.0
20260509060750 71 294 3.0 5.0 0.00 0.00 0.00 23 1007.0
20260509053749 72 149 0.0 4.0 0.00 0.00 0.00 24 1007.0
20260509050748 73 35 0.0 5.0 0.00 0.00 0.00 24 1007.0
20260509043747 74 105 1.0 4.0 0.00 0.00 0.00 23 1008.0
20260509040746 73 56 1.0 7.0 0.00 0.00 0.00 24 1008.0
20260509033745 73 122 3.0 6.0 0.00 0.00 0.00 25 1008.0
20260509030744 74 353 1.0 5.0 0.00 0.00 0.00 25 1008.0
20260509023743 74 138 1.0 2.0 0.00 0.00 0.00 26 1007.0
20260509020742 73 228 4.0 4.0 0.00 0.00 0.00 25 1008.0
20260509013741 73 224 2.0 3.0 0.00 0.00 0.00 27 1008.0
20260509010740 72 248 1.0 4.0 0.00 0.00 0.00 28 1008.0
20260509003739 70 146 2.0 3.0 0.00 0.00 0.00 26 1007.0
20260509000738 70 30 0.0 0.0 0.00 0.00 0.00 26 1005.0
20260508233737 71 14 0.0 3.0 0.00 0.00 0.00 25 1007.0
20260508230736 71 269 0.0 0.0 0.00 0.00 0.00 25 1006.0